Wind_Speed
3 6 4 5 1 4 4 4 3 3 1 9 9 9 8 8 3 1 3 4 4 4 3 4 5 6 7 6 7 8 8 7 8 9 11 10 13 18 22 22 21 17 12 10 8 9 8 6 9
3 4 4 4 3 8 8 4 5 6 6 7 10 11 5 7 4 2 1 2 3 4 4 4 5 6 7 7 7 8 8 8 8 9 12 12 10 11 16 19 18 14 9 9 11 13 11 9 9
3 4 2 3 6 7 7 6 7 7 7 10 8 6 11 9 6 1 1 1 2 3 4 5 5 6 7 8 8 8 9 10 10 10 12 13 13 12 11 12 12 10 10 9 8 9 11 10 11
4 3 1 4 6 2 6 5 8 7 7 9 10 7 11 10 5 2 3 2 3 4 6 6 6 6 7 9 10 10 11 11 12 11 12 13 13 14 14 12 10 10 8 7 8 8 8 10 12
5 1 3 5 8 6 3 5 8 4 6 7 9 6 10 10 4 2 4 3 4 5 6 8 8 8 9 10 11 12 12 11 11 12 12 12 12 13 13 12 13 12 11 12 12 12 13 13 13
2 5 4 8 7 5 4 10 8 4 5 5 7 5 12 11 6 2 4 3 4 4 6 7 7 9 10 11 11 11 11 11 10 10 10 10 10 10 10 10 10 11 10 10 11 13 13 13 14
3 2 3 6 8 7 4 11 5 4 5 4 6 3 10 11 7 2 2 3 4 3 3 5 5 6 8 9 9 9 9 8 8 8 7 7 7 8 8 8 7 7 8 8 8 10 11 12 12
6 5 7 6 9 4 4 8 11 7 4 5 5 3 6 10 9 3 3 4 5 5 5 4 5 6 6 6 7 6 6 6 6 6 5 5 4 5 5 5 5 5 5 6 6 7 8 9 10
13 6 8 7 6 4 4 3 9 6 4 3 3 3 6 9 8 7 3 5 6 6 6 6 6 5 5 6 6 6 6 6 5 5 5 4 4 4 3 4 4 4 5 5 6 5 6 8 8
7 6 6 6 6 5 5 5 3 4 3 4 6 2 4 7 8 9 5 6 8 8 8 8 7 7 7 7 7 6 6 6 5 5 4 4 4 4 4 4 4 4 5 5 6 6 6 7 8
8 4 7 5 7 8 5 4 4 4 6 5 4 4 4 4 6 8 8 4 8 9 9 10 10 9 9 9 8 8 8 7 7 7 6 6 5 5 5 5 4 5 6 6 6 7 7 7 8
4 5 6 7 9 8 5 4 5 8 7 7 9 9 9 8 6 6 7 8 5 9 10 11 11 11 11 11 11 10 10 9 9 8 8 7 6 6 6 6 6 6 6 6 7 7 7 8 9
5 4 5 5 7 9 7 9 5 10 11 13 14 15 15 14 13 10 6 5 6 7 10 11 12 12 13 13 13 12 12 11 11 11 10 10 9 9 8 7 7 7 7 7 8 8 8 8 9
7 8 7 4 3 5 6 10 11 13 13 13 10 13 15 17 18 16 12 10 7 7 8 10 12 13 14 14 14 14 13 12 13 13 12 12 11 11 11 10 9 8 8 9 9 9 9 10 9
8 7 6 4 3 4 4 2 7 6 7 8 11 12 13 13 14 18 19 16 15 13 10 11 12 13 14 14 14 15 14 14 14 14 14 14 13 13 13 12 12 11 10 10 10 11 11 11 11
5 6 4 2 2 3 3 3 9 7 9 10 11 12 10 14 15 19 20 21 21 18 15 14 13 13 15 15 16 16 15 15 14 15 16 16 16 16 15 15 14 14 13 12 12 12 12 12 12
7 4 5 2 6 6 5 5 10 11 11 10 9 11 11 13 17 19 21 22 23 22 20 17 15 15 15 14 15 16 16 16 15 16 18 18 17 17 17 17 16 16 15 14 15 14 14 13 13
6 6 5 5 5 3 6 12 10 9 9 8 9 10 10 11 15 19 22 21 23 25 23 21 19 17 15 14 14 15 16 17 18 19 19 19 19 19 19 18 18 18 18 18 17 16 16 16 15
4 4 5 4 5 4 6 5 7 8 7 8 9 10 9 10 12 16 21 24 23 24 26 25 22 20 17 15 15 17 17 18 20 21 21 20 20 20 20 20 20 20 20 20 19 18 18 18 17
2 3 4 4 5 3 5 3 7 8 8 8 8 8 9 9 9 11 14 20 25 24 26 28 25 23 21 18 18 18 18 19 20 22 22 22 22 21 21 22 22 21 21 22 22 21 20 20 19
4 4 5 4 7 5 8 6 4 8 8 7 6 7 8 9 9 8 8 13 21 24 22 29 28 25 23 22 21 20 19 20 22 24 23 23 23 23 23 23 23 23 23 23 24 24 24 23 21
6 7 6 5 4 6 11 1 9 5 4 6 6 6 5 5 7 7 6 7 12 18 20 26 27 27 25 25 23 22 21 22 23 24 24 23 23 23 23 24 24 25 25 24 25 25 26 26 25
6 7 5 6 9 11 12 8 12 8 2 6 4 1 2 4 5 7 5 5 9 12 15 20 25 27 27 26 25 24 23 24 24 24 23 23 22 23 24 24 24 24 25 25 26 26 26 26 27
6 6 7 7 7 9 14 13 10 6 11 8 7 4 4 6 8 8 7 3 5 8 13 16 18 21 25 25 26 25 23 23 22 20 19 19 19 20 21 23 24 24 24 25 27 27 26 26 27
4 3 6 6 5 1 3 6 2 15 14 12 10 7 3 2 4 7 8 8 5 2 5 9 11 15 20 23 24 23 22 21 21 21 21 21 22 23 24 24 24 25 26 26 27 28 28 27 28
5 6 8 6 6 3 3 5 4 13 15 15 13 9 6 3 1 1 2 4 5 4 1 2 4 7 14 18 21 22 24 24 25 26 26 27 28 29 29 30 30 30 30 30 30 30 29 30 29
4 4 7 9 14 9 6 4 9 13 14 17 16 13 10 8 7 6 4 2 1 2 3 2 1 3 5 9 13 16 19 22 24 25 27 28 30 31 32 32 32 32 33 35 35 34 32 32 32
9 9 5 6 4 8 6 6 3 9 13 17 16 16 15 13 12 10 9 8 8 6 5 4 2 3 3 4 5 7 9 11 13 15 16 17 18 19 21 22 23 24 25 27 30 32 33 35 34
3 4 4 7 7 6 9 3 3 7 11 12 17 18 17 16 15 14 14 13 12 12 12 11 11 11 11 12 12 12 13 13 15 16 17 18 18 18 18 18 18 18 18 21 23 25 26 30 31
14 8 7 6 3 7 6 10 8 6 9 11 15 17 18 18 18 19 19 18 18 18 17 16 16 17 18 19 20 21 21 22 22 22 22 21 22 22 21 21 21 21 21 21 21 20 21 23 25
Wind_Direction
11 28 33 148 172 206 194 167 141 114 42 46 48 62 43 28 38 209 319 360 18 34 81 109 132 123 124 129 126 115 110 103 89 81 82 118 157 180 191 203 212 212 213 222 214 236 240 214 204
338 3 23 150 211 210 153 157 153 111 83 51 45 47 27 350 5 313 319 6 26 41 72 105 120 128 130 134 126 123 120 115 105 89 84 86 118 166 186 199 212 215 208 212 202 218 233 229 217
323 331 42 198 222 234 140 159 156 126 74 51 29 40 25 344 332 290 222 98 57 60 80 103 120 127 136 131 130 130 126 118 111 103 98 90 91 120 160 184 197 196 198 204 212 219 227 224 213
335 350 251 188 193 128 120 163 142 105 66 46 43 2 5 359 329 268 188 157 115 82 83 96 109 125 131 132 131 129 125 122 117 108 99 96 94 96 109 135 157 167 175 180 182 177 176 178 172
357 120 193 189 157 160 168 160 140 105 79 61 57 41 20 13 344 231 186 173 144 117 103 100 109 120 127 127 129 128 126 122 115 111 106 100 97 98 100 106 114 119 125 131 131 131 135 141 148
332 131 188 176 156 154 140 158 141 127 91 77 60 24 23 18 22 174 177 184 164 136 117 109 112 117 119 122 125 125 127 124 119 112 109 109 107 106 110 114 118 122 126 128 130 129 130 133 138
147 113 154 148 157 148 171 150 142 148 106 97 79 29 24 25 27 74 192 201 192 176 156 136 142 130 129 129 129 131 130 128 125 122 117 117 116 116 119 121 123 128 129 130 133 135 138 142 143
122 104 129 133 158 157 175 174 186 134 136 122 101 54 15 17 19 356 227 222 221 211 203 194 187 164 161 151 149 150 145 143 140 136 134 129 127 129 132 131 138 141 143 146 150 155 153 153 154
95 124 127 126 134 129 134 153 188 169 122 145 69 46 19 11 6 5 268 232 229 231 231 223 214 204 195 178 178 174 170 168 164 158 157 158 155 154 162 161 166 172 171 171 172 178 172 172 173
97 130 140 124 126 112 107 139 139 115 116 78 10 313 355 6 8 8 338 244 228 225 227 234 227 223 220 211 202 201 199 198 191 187 188 183 180 180 189 192 185 191 198 191 190 192 197 196 194
99 154 133 141 144 123 109 85 91 155 176 195 237 282 297 331 343 356 3 291 244 240 234 233 237 235 234 227 226 220 223 219 214 212 211 208 203 205 205 206 207 209 213 212 209 206 204 207 208
88 141 150 185 180 169 153 121 250 209 228 252 262 272 278 284 297 313 332 336 267 241 242 242 242 244 244 242 236 233 231 232 233 231 229 229 223 217 219 217 220 220 222 221 221 214 209 204 210
104 120 139 187 192 202 208 222 224 249 257 263 265 267 270 273 271 270 271 287 298 263 248 244 243 245 246 247 247 244 240 239 240 241 239 240 238 235 232 230 233 233 232 229 230 227 222 216 211
125 108 104 99 131 182 199 239 239 260 261 266 275 276 267 262 257 252 249 241 250 261 258 253 250 248 249 250 252 253 251 249 248 248 247 245 245 245 244 239 237 238 239 239 235 232 229 226 222
136 114 99 115 136 157 143 277 232 251 233 263 283 301 271 261 248 243 240 239 240 248 253 252 248 249 247 248 250 252 253 253 253 255 255 253 250 249 249 247 245 244 244 245 241 239 234 228 225
152 182 193 248 185 217 176 259 239 245 261 288 287 292 282 255 245 240 243 246 241 240 247 252 253 252 249 247 246 248 251 253 257 258 258 255 252 250 248 247 246 246 244 245 244 242 239 236 232
203 228 201 234 239 241 208 228 256 262 273 283 284 289 281 260 244 239 237 237 238 242 244 247 248 252 255 257 255 253 251 252 254 253 254 256 255 253 252 250 248 248 247 245 245 240 240 237 237
196 205 210 214 259 170 203 240 260 267 276 278 287 299 296 271 251 243 238 235 235 235 239 244 244 248 255 259 260 260 254 251 252 253 254 256 257 256 254 253 251 250 250 248 246 243 242 238 237
186 209 224 211 241 159 174 217 258 265 268 280 293 299 303 295 273 255 246 238 232 234 234 237 242 246 248 254 256 257 258 256 252 253 255 255 255 255 256 254 252 251 250 250 250 248 247 245 241
253 251 222 239 240 176 188 213 255 260 269 278 289 302 308 310 297 278 258 240 230 231 234 234 237 242 248 253 260 264 264 263 260 258 256 256 257 258 260 260 259 257 256 256 254 253 252 252 248
249 240 245 266 245 221 204 239 236 257 266 274 287 307 316 324 319 300 285 247 227 226 236 231 236 238 246 250 255 263 268 267 267 265 263 260 259 258 260 263 264 261 258 258 259 259 258 256 252
261 266 233 213 205 279 207 141 197 182 259 278 297 305 319 335 350 326 291 248 231 228 230 228 232 238 241 248 251 259 265 270 273 275 275 274 274 272 271 268 267 269 269 266 263 264 264 265 264
256 260 239 233 253 271 240 248 156 174 208 254 248 214 57 38 27 18 323 269 234 233 235 235 237 240 243 245 248 255 263 271 276 280 284 287 287 284 281 277 276 275 273 272 272 269 266 267 268
271 284 280 266 249 250 241 210 168 209 219 227 211 174 101 65 51 45 42 29 265 247 238 236 240 243 240 239 238 244 254 265 271 277 282 286 287 286 284 283 280 278 276 273 272 271 270 268 267
266 268 248 210 200 311 139 213 163 216 228 218 213 206 184 98 61 53 44 39 31 280 258 249 238 234 231 230 231 239 249 256 265 272 277 281 284 285 285 287 285 282 279 276 272 271 271 269 268
232 250 288 304 324 41 176 242 193 245 230 220 220 221 226 234 266 347 38 63 62 55 10 232 232 231 229 230 234 239 245 250 255 261 267 272 275 278 281 283 283 282 280 278 275 272 270 270 267
217 239 253 286 270 273 192 226 254 254 224 221 225 232 241 250 258 265 269 273 297 86 92 97 156 215 226 236 241 244 249 253 257 260 264 267 270 272 274 276 277 277 278 278 276 273 271 268 267
230 248 267 211 272 271 198 233 230 245 231 228 231 240 246 252 259 265 268 268 265 264 263 263 263 259 265 266 265 269 273 274 272 272 273 273 275 276 278 279 280 278 277 277 278 276 271 268 266
272 255 253 265 261 290 297 88 161 235 225 230 231 240 248 256 262 267 270 273 276 278 281 283 283 283 283 282 282 284 282 281 281 281 281 280 279 279 280 281 283 286 287 283 281 280 277 273 269
259 256 247 250 256 249 282 289 277 180 225 219 236 247 253 260 265 268 271 274 277 280 281 283 284 285 284 285 288 289 290 290 289 285 282 279 280 280 279 279 280 282 284 284 285 286 285 280 276
Height
3149 3150 3150 3152 3159 3155 3153 3157 3158 3158 3158 3156 3155 3155 3155 3153 3152 3156 3152 3150 3150 3149 3148 3148 3148 3149 3149 3149 3150 3151 3151 3150 3149 3148 3147 3147 3147 3149 3151 3153 3154 3157 3160 3163 3165 3164 3164 3166 3167
3149 3150 3151 3152 3155 3153 3153 3157 3158 3157 3157 3156 3155 3156 3157 3154 3153 3152 3152 3152 3151 3150 3149 3149 3149 3150 3150 3151 3151 3152 3152 3153 3152 3151 3149 3149 3149 3149 3152 3153 3155 3157 3161 3162 3164 3164 3164 3165 3167
3148 3149 3152 3153 3153 3151 3153 3157 3157 3156 3156 3156 3157 3156 3156 3154 3153 3153 3153 3152 3152 3151 3151 3151 3151 3151 3151 3152 3153 3153 3153 3154 3154 3154 3153 3153 3152 3152 3152 3154 3156 3159 3160 3161 3162 3163 3164 3164 3166
3147 3148 3151 3152 3152 3153 3155 3157 3157 3157 3157 3157 3158 3158 3156 3154 3153 3153 3153 3153 3153 3152 3152 3152 3152 3153 3153 3153 3154 3154 3155 3156 3156 3157 3156 3155 3156 3155 3156 3156 3158 3159 3161 3161 3162 3162 3163 3164 3165
3146 3148 3152 3152 3152 3154 3156 3156 3158 3159 3158 3159 3159 3159 3157 3155 3153 3153 3154 3154 3154 3154 3154 3154 3154 3155 3156 3156 3156 3157 3157 3157 3158 3159 3159 3159 3159 3159 3159 3159 3160 3161 3163 3163 3164 3164 3165 3166 3167
3149 3148 3151 3152 3153 3155 3157 3157 3158 3160 3160 3159 3161 3160 3158 3156 3154 3154 3155 3155 3156 3156 3156 3156 3156 3157 3157 3158 3159 3159 3159 3160 3160 3161 3161 3162 3161 3162 3163 3163 3164 3164 3165 3166 3166 3166 3167 3168 3169
3148 3150 3151 3152 3154 3156 3157 3157 3160 3161 3161 3160 3160 3161 3160 3158 3157 3156 3156 3157 3157 3158 3158 3158 3158 3159 3159 3160 3160 3161 3161 3162 3162 3162 3163 3164 3164 3164 3165 3165 3166 3166 3166 3167 3168 3168 3169 3171 3172
3147 3151 3153 3153 3154 3157 3156 3156 3158 3160 3160 3160 3160 3162 3161 3159 3158 3157 3157 3158 3158 3159 3159 3160 3160 3160 3160 3161 3162 3162 3162 3163 3164 3164 3165 3165 3165 3166 3166 3166 3167 3168 3168 3168 3169 3171 3171 3172 3173
3148 3153 3154 3155 3156 3158 3157 3159 3159 3160 3161 3161 3161 3161 3161 3160 3159 3158 3158 3158 3159 3159 3160 3160 3161 3162 3162 3161 3162 3163 3164 3164 3165 3165 3166 3166 3167 3167 3168 3168 3169 3169 3169 3170 3171 3172 3172 3173 3174
3151 3154 3155 3156 3157 3158 3158 3159 3160 3162 3162 3163 3162 3161 3161 3161 3160 3159 3158 3158 3158 3159 3160 3160 3161 3161 3162 3162 3162 3163 3164 3164 3165 3166 3166 3167 3167 3168 3169 3169 3170 3170 3171 3171 3171 3172 3174 3174 3175
3152 3154 3154 3155 3155 3156 3158 3159 3160 3161 3161 3160 3161 3161 3161 3161 3160 3159 3158 3158 3158 3159 3160 3160 3160 3161 3161 3162 3163 3163 3164 3164 3165 3166 3166 3167 3167 3168 3169 3169 3170 3171 3171 3171 3172 3172 3173 3174 3175
3155 3152 3153 3153 3154 3155 3157 3158 3156 3159 3160 3160 3160 3160 3160 3161 3160 3159 3159 3158 3158 3158 3159 3159 3160 3160 3161 3162 3162 3162 3163 3164 3165 3165 3166 3166 3167 3167 3168 3169 3170 3171 3171 3171 3172 3172 3173 3173 3175
3154 3152 3152 3152 3153 3155 3156 3157 3157 3157 3158 3158 3158 3158 3158 3159 3159 3159 3159 3158 3158 3158 3158 3158 3159 3159 3160 3161 3161 3162 3162 3163 3163 3164 3165 3166 3166 3166 3167 3167 3169 3169 3170 3170 3171 3171 3172 3172 3173
3152 3152 3153 3153 3153 3154 3156 3156 3156 3155 3156 3156 3156 3155 3155 3155 3156 3157 3157 3157 3157 3156 3157 3157 3158 3158 3159 3159 3160 3161 3162 3162 3163 3163 3164 3165 3165 3166 3166 3167 3167 3168 3168 3169 3170 3170 3171 3171 3172
3153 3154 3154 3154 3154 3154 3155 3155 3154 3154 3154 3154 3153 3152 3151 3152 3153 3154 3155 3155 3155 3155 3155 3155 3156 3157 3157 3158 3158 3159 3160 3161 3161 3162 3163 3164 3164 3165 3165 3165 3166 3167 3167 3168 3168 3169 3170 3170 3171
3153 3156 3155 3154 3154 3154 3156 3154 3152 3153 3152 3152 3151 3149 3148 3148 3149 3149 3151 3153 3153 3153 3154 3154 3155 3155 3155 3155 3156 3157 3158 3159 3160 3160 3161 3161 3162 3163 3163 3164 3164 3165 3165 3166 3166 3167 3168 3169 3169
3153 3152 3154 3153 3152 3153 3155 3152 3151 3151 3150 3149 3148 3147 3145 3144 3145 3145 3146 3148 3150 3152 3152 3153 3153 3153 3153 3154 3154 3155 3155 3156 3157 3157 3158 3158 3159 3160 3161 3162 3163 3163 3164 3164 3165 3165 3166 3166 3167
3150 3152 3152 3152 3151 3151 3150 3149 3149 3149 3148 3147 3146 3145 3143 3141 3141 3141 3142 3144 3146 3148 3150 3151 3151 3151 3151 3152 3152 3152 3153 3153 3154 3154 3155 3156 3156 3157 3158 3158 3159 3160 3161 3162 3162 3162 3163 3164 3164
3150 3151 3151 3150 3148 3150 3150 3148 3146 3146 3146 3145 3144 3143 3141 3139 3138 3137 3138 3140 3142 3144 3146 3148 3149 3149 3149 3150 3149 3149 3150 3151 3151 3151 3152 3153 3153 3154 3154 3155 3156 3157 3158 3159 3160 3160 3160 3161 3161
3149 3150 3151 3149 3148 3150 3149 3147 3145 3145 3144 3144 3142 3140 3139 3136 3135 3134 3134 3135 3137 3140 3142 3144 3146 3147 3148 3148 3148 3148 3148 3148 3149 3149 3149 3150 3150 3151 3151 3152 3153 3153 3154 3156 3156 3157 3157 3158 3158
3148 3149 3150 3150 3147 3148 3148 3147 3145 3143 3142 3142 3141 3139 3138 3137 3134 3132 3131 3131 3132 3135 3138 3140 3142 3144 3146 3146 3146 3146 3146 3146 3146 3145 3146 3146 3147 3147 3148 3148 3149 3150 3151 3152 3153 3154 3154 3154 3155
3148 3146 3146 3147 3148 3147 3146 3143 3144 3142 3141 3141 3140 3139 3137 3135 3133 3132 3130 3130 3131 3132 3134 3136 3139 3140 3142 3143 3143 3144 3144 3144 3143 3143 3143 3144 3145 3145 3145 3145 3146 3147 3148 3148 3148 3150 3151 3152 3152
3146 3145 3145 3146 3146 3146 3145 3147 3140 3141 3140 3139 3140 3139 3137 3135 3133 3132 3131 3130 3130 3131 3132 3134 3135 3136 3138 3139 3141 3141 3142 3141 3141 3141 3141 3141 3142 3141 3142 3142 3142 3142 3143 3144 3145 3145 3145 3147 3148
3144 3144 3144 3143 3145 3142 3137 3141 3140 3141 3140 3137 3138 3138 3137 3136 3134 3132 3131 3130 3130 3130 3130 3131 3132 3133 3134 3135 3137 3138 3139 3139 3139 3139 3139 3138 3138 3137 3137 3137 3137 3137 3137 3138 3139 3139 3140 3141 3142
3144 3145 3141 3140 3140 3133 3137 3139 3139 3136 3135 3135 3137 3137 3137 3136 3135 3133 3132 3131 3130 3129 3130 3130 3129 3130 3131 3132 3134 3135 3136 3136 3136 3136 3136 3135 3134 3133 3133 3132 3132 3132 3132 3132 3132 3132 3133 3134 3135
3144 3144 3142 3136 3129 3131 3136 3135 3135 3132 3133 3134 3135 3135 3136 3136 3135 3135 3133 3132 3131 3130 3130 3129 3129 3129 3130 3130 3131 3132 3132 3132 3132 3132 3131 3131 3130 3129 3128 3127 3127 3126 3125 3125 3125 3125 3126 3127 3127
3142 3142 3141 3140 3136 3135 3130 3132 3131 3130 3131 3132 3133 3133 3134 3134 3134 3134 3133 3133 3132 3131 3130 3130 3129 3129 3128 3129 3129 3129 3129 3128 3128 3127 3127 3126 3125 3123 3122 3121 3120 3119 3118 3117 3117 3117 3118 3118 3119
3139 3139 3140 3138 3133 3127 3124 3127 3127 3127 3128 3129 3131 3132 3131 3131 3131 3132 3132 3131 3130 3130 3129 3129 3128 3128 3128 3127 3126 3126 3125 3125 3124 3123 3122 3121 3119 3118 3117 3115 3114 3113 3112 3110 3109 3109 3110 3109 3111
3138 3137 3137 3136 3134 3129 3125 3127 3127 3128 3127 3127 3128 3128 3129 3130 3129 3129 3129 3129 3128 3127 3127 3126 3125 3125 3124 3124 3123 3122 3121 3121 3120 3119 3118 3117 3115 3114 3112 3111 3109 3108 3107 3105 3104 3103 3102 3101 3102
3133 3135 3134 3134 3131 3131 3130 3129 3127 3129 3127 3127 3125 3126 3126 3127 3127 3127 3126 3125 3125 3124 3123 3123 3122 3121 3120 3119 3118 3118 3117 3116 3115 3113 3112 3111 3110 3108 3107 3105 3104 3103 3102 3100 3099 3098 3096 3095 3095